"Pseudo-MPEC" for C34XD22

Created 2020 Sep 19 21:07:07 UT using Find_Orb

Click here for an explanation of pseudo-MPECs

 
 Astrometry: 
     C34XD22  C2020 09 10.27566 23 02 37.78 +00 18 38.5    ~9A7M 20.1 GVNEOCPG96
     C34XD22  C2020 09 10.28084 23 02 42.74 +00 20 15.5    ~9A7M 21.0 GVNEOCPG96
     C34XD22  C2020 09 10.28603 23 02 47.72 +00 21 52.0    ~9A7M 20.2 GVNEOCPG96
     C34XD22  C2020 09 10.29121 23 02 52.52 +00 23 26.7    ~9A7M 20.9 GVNEOCPG96
     C34XD22  C2020 09 10.36122 23 03 58.28 +00 44 46.9    ~9A97 19.9 GVNEOCPI52
     C34XD22  C2020 09 10.36270 23 03 59.64 +00 45 13.6    ~9A97 20.6 GVNEOCPI52
     C34XD22  C2020 09 10.36418 23 04 01.07 +00 45 40.8    ~9A97 20.6 GVNEOCPI52
     C34XD22  C2020 09 10.36566 23 04 02.41 +00 46 07.2    ~9A97 20.6 GVNEOCPI52

Station data:
(G96) Mt. Lemmon Survey  (N32.442754 W110.788720)  US/Arizona.  Observers T.
   A. Pruyne, B. M. Africano, E. J. Christensen, G. A. Farneth, D. C. Fuls,
   A. R. Gibbs, A. D. Grauer, H. Gröller, J. A. Johnson, R. A. Kowalski, S.
   M. Larson, G. J. Leonard, D. Rankin, R. L. Seaman, F. C. Shelly. 1.5-m
   reflector + 10K CCD.
(I52) Steward Observatory, Mt. Lemmon Station  (N32.442547 W110.788920)
   US/Arizona.  Observers T. A. Pruyne, B. M. Africano, E. J. Christensen, G.
   A. Farneth, D. C. Fuls, A. R. Gibbs, A. D. Grauer, H. Gröller, J. A.
   Johnson, R. A. Kowalski, S. M. Larson, G. J. Leonard, D. Rankin, R. L.
   Seaman, F. C. Shelly. 1.0-m reflector + CCD.

Orbital elements:  C34XD22
   Perihelion 2020 Aug 11.741182 +/- 6.03 TT = 17:47:18 (JD 2459073.241182)
Epoch 2020 Sep 10.0 TT = JDT 2459102.5   Earth MOID: 0.0083   AutoNEOCP
M  12.26742221 +/- 18               (J2000 ecliptic)
n   0.41927265 +/- 0.672            Peri.  326.62022 +/- 6
a   1.76795698 +/- 1.89             Node   346.05063 +/- 0.18
e   0.4490644 +/- 0.601             Incl.    5.04132 +/- 5.0
P   2.35/858.61d           H 28.3   G  0.15   U 12.5  
q 0.97403043 +/- 0.0368    Q 2.56188352 +/- 5.58
From 8 observations 2020 Sept. 10 (2.2 hr); mean residual 0".43
Residuals in arcseconds: 
200910 G96  .37-  .42-    200910 G96  .68-  .56-    200910 I52  .43+  .31+    
200910 G96  .12+  .36+    200910 I52  .07+  .15-    200910 I52  .22-  .01+    
200910 G96  .93+  .62+    200910 I52  .28-  .18-    

Ephemerides (geocentric):
Date (UTC) HH   RA              Dec         delta   r     elong  mag " sig PA
---- -- -- --  -------------   -----------  ------ ------ -----  --- ---- ---
2020 09 19 21  00 07 07.948   +17 51 15.50  .07173 1.0722 160.5 23.6 167d 138
2020 09 19 22  00 07 13.876   +17 52 37.95  .07195 1.0724 160.5 23.6 167d 138
2020 09 19 23  00 07 19.769   +17 53 59.81  .07216 1.0726 160.5 23.6 167d 138
2020 09 20 00  00 07 25.628   +17 55 21.08  .07238 1.0728 160.5 23.6 167d 138
2020 09 20 01  00 07 31.452   +17 56 41.77  .07260 1.0730 160.5 23.7 167d 138
2020 09 20 02  00 07 37.242   +17 58 01.88  .07281 1.0732 160.5 23.7 167d 139
2020 09 20 03  00 07 42.997   +17 59 21.42  .07303 1.0734 160.5 23.7 167d 139
2020 09 20 04  00 07 48.719   +18 00 40.40  .07325 1.0736 160.5 23.7 167d 139
2020 09 20 05  00 07 54.408   +18 01 58.81  .07346 1.0738 160.5 23.7 167d 139
2020 09 20 06  00 08 00.064   +18 03 16.67  .07368 1.0740 160.5 23.7 167d 139
2020 09 20 07  00 08 05.687   +18 04 33.97  .07390 1.0742 160.5 23.7 167d 139
2020 09 20 08  00 08 11.277   +18 05 50.73  .07411 1.0744 160.5 23.7 167d 139
2020 09 20 09  00 08 16.835   +18 07 06.94  .07433 1.0745 160.5 23.7 167d 139
2020 09 20 10  00 08 22.361   +18 08 22.62  .07455 1.0747 160.5 23.7 167d 140
2020 09 20 11  00 08 27.855   +18 09 37.76  .07477 1.0749 160.5 23.7 167d 140
2020 09 20 12  00 08 33.317   +18 10 52.37  .07498 1.0751 160.5 23.7 167d 140
2020 09 20 13  00 08 38.749   +18 12 06.46  .07520 1.0753 160.5 23.7 167d 140
2020 09 20 14  00 08 44.149   +18 13 20.02  .07542 1.0755 160.5 23.7 167d 140
2020 09 20 15  00 08 49.518   +18 14 33.07  .07563 1.0757 160.5 23.7 167d 140
2020 09 20 16  00 08 54.857   +18 15 45.60  .07585 1.0759 160.5 23.8 167d 140
2020 09 20 17  00 09 00.166   +18 16 57.62  .07607 1.0761 160.4 23.8 167d 140
2020 09 20 18  00 09 05.445   +18 18 09.14  .07629 1.0763 160.4 23.8 167d 140
2020 09 20 19  00 09 10.694   +18 19 20.16  .07651 1.0765 160.4 23.8 167d 141
2020 09 20 20  00 09 15.913   +18 20 30.68  .07672 1.0767 160.4 23.8 167d 141
2020 09 20 21  00 09 21.103   +18 21 40.71  .07694 1.0769 160.4 23.8 167d 141
2020 09 20 22  00 09 26.264   +18 22 50.25  .07716 1.0771 160.4 23.8 167d 141
2020 09 20 23  00 09 31.397   +18 23 59.31  .07738 1.0773 160.4 23.8 167d 141
2020 09 21 00  00 09 36.500   +18 25 07.88  .07760 1.0775 160.4 23.8 167d 141
2020 09 21 01  00 09 41.575   +18 26 15.98  .07781 1.0777 160.5 23.8 167d 141
2020 09 21 02  00 09 46.622   +18 27 23.60  .07803 1.0779 160.5 23.8 166d 141
2020 09 21 03  00 09 51.641   +18 28 30.76  .07825 1.0781 160.5 23.8 166d 141
2020 09 21 04  00 09 56.633   +18 29 37.44  .07847 1.0783 160.5 23.8 166d 142
2020 09 21 05  00 10 01.596   +18 30 43.67  .07869 1.0785 160.5 23.8 166d 142
2020 09 21 06  00 10 06.533   +18 31 49.43  .07891 1.0786 160.5 23.8 166d 142
2020 09 21 07  00 10 11.442   +18 32 54.74  .07913 1.0788 160.5 23.8 166d 142
2020 09 21 08  00 10 16.325   +18 33 59.60  .07934 1.0790 160.5 23.9 166d 142
2020 09 21 09  00 10 21.181   +18 35 04.01  .07956 1.0792 160.5 23.9 166d 142
2020 09 21 10  00 10 26.010   +18 36 07.97  .07978 1.0794 160.5 23.9 166d 142
2020 09 21 11  00 10 30.813   +18 37 11.50  .08000 1.0796 160.5 23.9 166d 142
2020 09 21 12  00 10 35.590   +18 38 14.58  .08022 1.0798 160.5 23.9 166d 142
2020 09 21 13  00 10 40.342   +18 39 17.23  .08044 1.0800 160.5 23.9 166d 143
2020 09 21 14  00 10 45.067   +18 40 19.45  .08066 1.0802 160.5 23.9 166d 143
2020 09 21 15  00 10 49.767   +18 41 21.24  .08088 1.0804 160.5 23.9 166d 143
2020 09 21 16  00 10 54.442   +18 42 22.61  .08110 1.0806 160.5 23.9 166d 143
2020 09 21 17  00 10 59.092   +18 43 23.55  .08132 1.0808 160.5 23.9 166d 143
2020 09 21 18  00 11 03.717   +18 44 24.08  .08154 1.0810 160.5 23.9 166d 143
2020 09 21 19  00 11 08.317   +18 45 24.19  .08176 1.0812 160.5 23.9 166d 143
2020 09 21 20  00 11 12.893   +18 46 23.88  .08198 1.0814 160.5 23.9 166d 143